This demonstration page uses our WeatherBlox Daily Observations layout. Learn more.

36.17497, -115.13722

Hourly Observations for February 8, 2015

Temp ( °F °C ) Dew Point ( °F °C ) Humidity (%) Winds ( mph kmh ) Pressure ( in mb ) Visibility ( mi km ) Precip ( " mm )
12:53 am 00:53 Clear 60 15.6 46 7.8 60 60 N 5 7 30.08 1019 10 16.0934 0 0
1:53 am 01:53 Clear 59 15 46 7.8 62 62 N 8 13 30.09 1019 10 16.0934 0 0
2:53 am 02:53 Clear 57 13.9 45 7.2 64 64 NW 6 9 30.09 1019 10 16.0934 0 0
3:53 am 03:53 Clear 55 12.8 45 7.2 69 69 NW 3 6 30.1 1019 10 16.0934 0 0
4:53 am 04:53 Clear 54 12.2 45 7.2 72 72 NNW 3 6 30.11 1020 10 16.0934 0 0
5:53 am 05:53 Clear 53 11.7 45 7.2 74 74 Calm 30.14 1021 10 16.0934 0 0
6:53 am 06:53 Sunny 53 11.7 45 7.2 74 74 NW 5 7 30.16 1021 10 16.0934 0 0
7:53 am 07:53 Sunny 57 13.9 45 7.2 64 64 Calm 30.19 1022 10 16.0934 0 0
8:53 am 08:53 Sunny 61 16.1 45 7.2 56 56 Calm 30.19 1022 10 16.0934 0 0
9:53 am 09:53 Sunny 65 18.3 43 6.1 45 45 Calm 30.19 1022 10 16.0934 0 0
10:53 am 10:53 Sunny 67 19.4 45 7.2 45 45 Calm 30.18 1022 10 16.0934 0 0
11:53 am 11:53 Sunny 70 21.1 45 7.2 41 41 VRB 6 9 30.14 1021 10 16.0934 0 0
12:53 pm 12:53 Sunny 71 21.7 44 6.7 38 38 E 8 13 30.1 1019 10 16.0934 0 0
1:53 pm 13:53 Sunny 73 22.8 43 6.1 34 34 SSE 8 13 30.07 1018 10 16.0934 0 0
2:53 pm 14:53 Sunny 74 23.3 43 6.1 33 33 SE 9 15 30.06 1018 10 16.0934 0 0
3:53 pm 15:53 Sunny 75 23.9 40 4.4 28 28 SE 9 15 30.05 1018 10 16.0934 0 0
4:53 pm 16:53 Sunny 73 22.8 40 4.4 30 30 ESE 5 7 30.05 1018 10 16.0934 0 0
5:53 pm 17:53 Clear 71 21.7 41 5 34 34 ENE 5 7 30.06 1018 10 16.0934 0 0
6:53 pm 18:53 Clear 72 22.2 36 2.2 27 27 SW 10 17 30.06 1018 10 16.0934 0 0
7:53 pm 19:53 Clear 68 20 38 3.3 33 33 ENE 7 11 30.09 1019 10 16.0934 0 0
8:53 pm 20:53 Clear 64 17.8 40 4.4 41 41 Calm 30.09 1019 10 16.0934 0 0
9:53 pm 21:53 Clear 62 16.7 41 5 46 46 N 3 6 30.1 1019 10 16.0934 0 0
10:53 pm 22:53 Clear 60 15.6 41 5 50 50 WNW 3 6 30.1 1019 10 16.0934 0 0
11:53 pm 23:53 Clear 57 13.9 41 5 55 55 Calm 30.11 1020 10 16.0934 0 0

Powered by AerisWeather